This is the latest recevied weather packets stored in our database for station/object KN6CRX. If no packets are shown the sender has not sent any weather packets the latest 10 day(s).
| Time | Temp. | Humidity | Pressure | Rain* | Wind** | Luminosity | Snow |
|---|---|---|---|---|---|---|---|
| 1787680131 | 26.67° C | 38% | 1026.6 hPa | 0 mm | - | 753 W/m² | - |
| 1787679827 | 26.11° C | 37% | 1026.4 hPa | 0 mm | - | 724 W/m² | - |
| 1787679526 | 26.11° C | 40% | 1026.4 hPa | 0 mm | - | 717 W/m² | - |
| 1787679222 | 25.56° C | 40% | 1026.6 hPa | 0 mm | - | 704 W/m² | - |
| 1787678917 | 26.11° C | 39% | 1026.7 hPa | 0 mm | - | 693 W/m² | - |
| 1787678616 | 26.11° C | 42% | 1026.7 hPa | 0 mm | - | 689 W/m² | - |
| 1787678312 | 26.11° C | 41% | 1026.7 hPa | 0 mm | - | 677 W/m² | - |
| 1787678007 | 25.56° C | 42% | 1026.7 hPa | 0 mm | - | 668 W/m² | - |
| 1787677701 | 25° C | 41% | 1026.8 hPa | 0 mm | - | 650 W/m² | - |
| 1787677401 | 25° C | 42% | 1026.7 hPa | 0 mm | - | 635 W/m² | - |
| 1787677094 | 24.44° C | 43% | 1026.7 hPa | 0 mm | - | 615 W/m² | - |
| 1787676790 | 24.44° C | 44% | 1026.7 hPa | 0 mm | - | 598 W/m² | - |
| 1787676484 | 23.89° C | 45% | 1026.8 hPa | 0 mm | - | 594 W/m² | - |
| 1787676183 | 23.89° C | 47% | 1026.9 hPa | 0 mm | - | 576 W/m² | - |
| 1787675876 | 23.33° C | 47% | 1026.7 hPa | 0 mm | - | 555 W/m² | - |
| 1787675573 | 22.78° C | 48% | 1026.9 hPa | 0 mm | - | 543 W/m² | - |
| 1787675271 | 22.78° C | 52% | 1026.8 hPa | 0 mm | - | 533 W/m² | - |
| 1787674966 | 22.22° C | 52% | 1026.9 hPa | 0 mm | - | 511 W/m² | - |
| 1787674662 | 21.67° C | 53% | 1026.8 hPa | 0 mm | - | 497 W/m² | - |
| 1787674357 | 21.67° C | 55% | 1026.9 hPa | 0 mm | - | 480 W/m² | - |
| 1787674052 | 21.67° C | 58% | 1026.7 hPa | 0 mm | - | 469 W/m² | - |
| 1787673747 | 21.67° C | 57% | 1026.8 hPa | 0 mm | - | 456 W/m² | - |
| 1787673446 | 21.11° C | 58% | 1026.8 hPa | 0 mm | - | 436 W/m² | - |
| 1787673141 | 20.56° C | 59% | 1026.8 hPa | 0 mm | - | 409 W/m² | - |
| 1787672841 | 20° C | 61% | 1027 hPa | 0 mm | - | 389 W/m² | - |
* Rain latest hour (hover to see other rain measurements)
** Current wind speed in m/s (hover to see current wind gust speed)